Flag for U.S.A. Weather past 2 weeks in Owensboro, Kentucky, U.S.A.

Now
53 °F

Clear.


Feels Like: 53 °F
Forecast: 48 / 70 °F
Wind: 3 mph from Northwest

Location: Owensboro / Daviess


UV Index: 5 (Moderate)

Visibility: 10 mi


Pressure: 30.20 "Hg

Humidity: 72%

Dew point: 44 °F

Location of OwensboroLocation

Historic Weather in Owensboro

°F

Owensboro temperature yesterday

Maximum temperature yesterday: 71 °F (at 1:56 PM)
Minimum temperature yesterday: 44 °F (at 5:56 AM)
Average temperature yesterday: 60 °F

Past Weeks' High & Low Weather Summary

 TemperatureHumidityPressure
High79 °F (Apr 12, 3:56 PM)100% (Apr 4, 12:56 AM)30.38 "Hg (Apr 4, 12:56 AM)
Low31 °F (Apr 16, 2:56 AM)27% (Apr 18, 2:56 PM)29.45 "Hg (Apr 7, 12:56 PM)
Average54 °F69%30.00 "Hg
* Reported Apr 4 12:56 AM — Apr 19 12:56 AM, Owensboro, Weather by CustomWeather, © 2014

Note: Actual official high and low records may vary slightly from our data, if they occured in-between our weather recording intervals... More about our weather records

Advertising

Historic Weather Conditions — Data for Previous 24 hours

 ConditionsComfort  
Time TempWeatherWind HumidityBarometerVisibility
12:56 AM
Apr 19
58 °FClear.3 mph55%30.21 "Hg10 mi
11:56 PM
Apr 18
58 °FClear.3 mph55%30.21 "Hg10 mi
10:56 PM61 °FClear.3 mph46%30.21 "Hg10 mi
9:56 PM61 °FClear.5 mph50%30.21 "Hg10 mi
8:56 PM65 °FClear.5 mph43%30.20 "Hg10 mi
7:56 PM68 °FSunny.No wind36%30.19 "Hg10 mi
6:56 PM70 °FPartly sunny.3 mph31%30.18 "Hg10 mi
5:56 PM70 °FPassing clouds.5 mph34%30.19 "Hg10 mi
4:56 PM70 °FSunny.3 mph32%30.19 "Hg10 mi
3:56 PM71 °FPassing clouds.No wind29%30.21 "Hg10 mi
2:56 PM71 °FPassing clouds.7 mph27%30.24 "Hg10 mi
1:56 PM71 °FSunny.3 mph31%30.26 "Hg10 mi
12:56 PM70 °FSunny.6 mph36%30.27 "Hg10 mi
11:56 AM68 °FSunny.7 mph42%30.29 "Hg10 mi
10:56 AM66 °FSunny.7 mph47%30.29 "Hg10 mi
9:56 AM62 °FSunny.6 mph56%30.30 "Hg10 mi
8:56 AM56 °FSunny.6 mph67%30.29 "Hg10 mi
7:56 AM51 °FSunny.No wind74%30.29 "Hg10 mi
6:56 AM46 °FClear.No wind83%30.27 "Hg10 mi
5:56 AM44 °FClear.3 mph93%30.27 "Hg10 mi
4:56 AM47 °FClear.3 mph86%30.26 "Hg10 mi
3:56 AM46 °FClear.No wind97%30.27 "Hg10 mi
2:56 AM49 °FClear.No wind77%30.26 "Hg10 mi
Weather by CustomWeather, © 2014

See weather overview